1352039974097463,  0.01882834753, -0.00782195932,  0.00025118420, -0.00001188241,  0.00001174277, -0.00037264449,  0.01778074034,  0.00030572957,  0.00000281466,  0.00000087151,  0.00017921400,  0.05098429048,  0.00135317284,  0.00023737873, -0.00000587304,  0.00011787086, -0.00000846851, -0.00000016346,  0.00008377706, -0.00000009602,  0.00005102829
1352040005492279,  0.01650290748, -0.00812154903,  0.00021498199, -0.00003121219, -0.00000797944, -0.00028206902,  0.01927507391,  0.00011996176,  0.00000900200,  0.00000444729,  0.00026563484,  0.04377594323,  0.00094216588,  0.00065608050, -0.00007955335,  0.00008474756,  0.00001418419, -0.00000253708,  0.00007237349, -0.00000229770,  0.00003551389
1352040012691092,  0.01493258988, -0.00809266987,  0.00014969104, -0.00002339692, -0.00000342896, -0.00022596601,  0.02133319522,  0.00000920044, -0.00000303015,  0.00000278217,  0.00032869601,  0.03988849398,  0.00094466821,  0.00031521505, -0.00004353342,  0.00008650617,  0.00001478262, -0.00000177342,  0.00006747556, -0.00000200320,  0.00003469006
1352040016490469,  0.01355961714, -0.00743635176,  0.00011958156, -0.00003274981, -0.00000220835, -0.00016765675,  0.02340794850,  0.00003734003,  0.00002397235, -0.00000489066,  0.00036845629,  0.03684701093,  0.00079307559,  0.00025406693, -0.00008328674,  0.00008477716,  0.00001688224, -0.00000369777,  0.00007742226, -0.00000279648,  0.00003958455
1352040020089871,  0.01235659921, -0.00601671752,  0.00017582816, -0.00002060439, -0.00000691277, -0.00010138922,  0.02498991111,  0.00016112382,  0.00003638019, -0.00000464533,  0.00039600664,  0.03410975820,  0.00060231351,  0.00027291838, -0.00006226623,  0.00006770913,  0.00001200214, -0.00000150069,  0.00009147653, -0.00000223595,  0.00004045873
1352040023689294,  0.01171974175, -0.00412996487,  0.00024388129, -0.00000712928, -0.00000614551, -0.00003596236,  0.02540630512,  0.00024104989,  0.00000654533, -0.00000439128,  0.00039825477,  0.03212049297,  0.00052302779,  0.00002206675, -0.00000654448,  0.00006687871,  0.00001086466, -0.00000027159,  0.00009470821, -0.00000100449,  0.00004066910
1352040027288686,  0.01191127997, -0.00216516990,  0.00036159757,  0.00000428491, -0.00000338283,  0.00005051142,  0.02594209509,  0.00028459265,  0.00003231891,  0.00001218029,  0.00042230315,  0.03288415440,  0.00053636911, -0.00021326836, -0.00002633618,  0.00006841593, -0.00000271033, -0.00000125607,  0.00011534179, -0.00000169448,  0.00004229056
1352040031088056,  0.01211795404, -0.00026621264,  0.00047117255,  0.00001155737, -0.00000438394,  0.00007645312,  0.02504629408,  0.00027784702,  0.00001959957,  0.00000461107,  0.00041155736,  0.03430090624,  0.00061034696, -0.00010554368, -0.00001616182,  0.00008952712, -0.00001103178,  0.00000135549,  0.00011963460,  0.00000015365,  0.00006697448
1352040037886951,  0.01274699947,  0.00086009252,  0.00048121637,  0.00001335300,  0.00000137008,  0.00012526231,  0.02266953751,  0.00029012851,  0.00001107198, -0.00000070208,  0.00037084559,  0.03457909719,  0.00064850413,  0.00022736725, -0.00000468680,  0.00008278525, -0.00001318878,  0.00000011174,  0.00006475992,  0.00000078793,  0.00004117963
1352040042086239,  0.01254467748,  0.00007821583,  0.00049450202,  0.00000220750,  0.00001271715,  0.00012001638,  0.01948682621,  0.00018688138, -0.00000900678, -0.00000257153,  0.00031105242,  0.03014297057,  0.00023580715,  0.00054550217,  0.00000784262,  0.00007518690,  0.00000911465,  0.00000079654,  0.00005470598,  0.00000069313,  0.00003405633
1352040045685646,  0.01205733185, -0.00100589657,  0.00042651646,  0.00000227321,  0.00001154315,  0.00009187943,  0.01693590701,  0.00018664648, -0.00001046504, -0.00000382272,  0.00026002761,  0.02546547122,  0.00019208466,  0.00040441084,  0.00000512679,  0.00007123978,  0.00001206504,  0.00000101006,  0.00005533137,  0.00000076440,  0.00003520756
1352040049285052,  0.01166185476, -0.00193851542,  0.00038330314, -0.00000028564,  0.00001234039,  0.00006289482,  0.01477820168,  0.00019041615, -0.00001274033, -0.00000864503,  0.00022507436,  0.02185215441,  0.00006295160,  0.00029927629, -0.00000008673,  0.00006352150,  0.00001354310,  0.00000083801,  0.00004987162,  0.00000066148,  0.00002844897
1352040052884459,  0.01139341670, -0.00270148801,  0.00033432658, -0.00000069393,  0.00001152037,  0.00003599004,  0.01293793101,  0.00024250128, -0.00001296494, -0.00001231232,  0.00020236977,  0.01941712496, -0.00001475801,  0.00018409199, -0.00000281675,  0.00005619481,  0.00001322419,  0.00000053008,  0.00004319213,  0.00000058030,  0.00002236991
1352040056483865,  0.01127467134, -0.00332243000,  0.00029089168, -0.00000141931,  0.00000978840,  0.00000575284,  0.01143413919,  0.00032735754, -0.00001410523, -0.00001663595,  0.00017849666,  0.01824604741, -0.00009728948,  0.00005796438, -0.00000537988,  0.00005460691,  0.00001522333,  0.00000073243,  0.00004257234,  0.00000088154,  0.00002121086
1352040060083268,  0.01130771816, -0.00375558050,  0.00026100702, -0.00000032973,  0.00000979942, -0.00002097154,  0.01005683209,  0.00044266185, -0.00002592718, -0.00002125484,  0.00015541400,  0.01821094559, -0.00017179776, -0.00004664014, -0.00001844774,  0.00005507630,  0.00001364495,  0.00000258658,  0.00003865256,  0.00000176767,  0.00002035027
1352040158866935,  0.01141470628, -0.00394082125,  0.00023196332, -0.00000476686,  0.00000996961, -0.00003769819,  0.00881494681,  0.00057779024, -0.00000998043, -0.00002065010,  0.00013983893,  0.01889338121, -0.00023840707, -0.00010985841,  0.00001026058,  0.00005482180,  0.00001040009, -0.00000207979,  0.00003424946, -0.00000021483,  0.00001891756
1352040162666320,  0.01162165587, -0.00401168507,  0.00020008095, -0.00000213648,  0.00001168853, -0.00005769430,  0.00765430978,  0.00077314545, -0.00002867896, -0.00002671719,  0.00011574395,  0.02059209634, -0.00030600949, -0.00020622626, -0.00002098472,  0.00005369696,  0.00001131630,  0.00000148242,  0.00003395692,  0.00000109700,  0.00001859895
1352040166265707,  0.01190225018, -0.00393986276,  0.00017868026,  0.00000362978,  0.00001144844, -0.00007846298,  0.00667668599,  0.00095944004, -0.00003953991, -0.00002589077,  0.00009626466,  0.02315142913, -0.00039953098, -0.00026015076, -0.00005570306,  0.00005489580,  0.00001077772,  0.00000393189,  0.00003318715,  0.00000182042,  0.00001999248
1352040170065080,  0.01202749399, -0.00363532463,  0.00014990907,  0.00000331552,  0.00001042719, -0.00008930314,  0.00583824806,  0.00110614947, -0.00004294859, -0.00000968330,  0.00007857671,  0.02531134319, -0.00053611536, -0.00011095054, -0.00003598274,  0.00006022926,  0.00000389874,  0.00000274934,  0.00002626145,  0.00000044513,  0.00001967445
1352040173664483,  0.01186924248, -0.00318937295,  0.00010663491,  0.00000921345,  0.00000778655, -0.00008912192,  0.00519014107,  0.00117095215, -0.00004725450, -0.00000329081,  0.00005755718,  0.02617048946, -0.00055473874, -0.00007800027, -0.00006116463,  0.00006013144,  0.00000578990,  0.00000465255,  0.00002602127,  0.00000070962,  0.00002107015
1352040177463849,  0.01149191761, -0.00271626097,  0.00011270226,  0.00000800333,  0.00000406191, -0.00008590390,  0.00468873005,  0.00104943805, -0.00003832500,  0.00000766211,  0.00004566611,  0.02587165169, -0.00053590666,  0.00006842455, -0.00005836009,  0.00005926709,  0.00000209032,  0.00000482285,  0.00002591882,  0.00000027427,  0.00002167193
1352040181263220,  0.01094439491, -0.00232827338,  0.00011811212,  0.00000293041,  0.00000217420, -0.00007434281,  0.00438599745,  0.00086039027, -0.00002629279,  0.00001314848,  0.00004222871,  0.02397585763, -0.00044274809,  0.00017496683, -0.00003392567,  0.00006011253, -0.00000289385,  0.00000377091,  0.00002633257, -0.00000026545,  0.00002114790
1352040184862624,  0.01042304920, -0.00199137521,  0.00011606959,  0.00000044868,  0.00000155848, -0.00006021282,  0.00413813001,  0.00070654732, -0.00001961489,  0.00001131053,  0.00003660595,  0.02204499512, -0.00037120263,  0.00016465595, -0.00002566506,  0.00005890517, -0.00000369982,  0.00000335055,  0.00002517261, -0.00000032051,  0.00001958241
1352040188262064,  0.01001540499, -0.00171328380,  0.00009896739,  0.00000142315,  0.00000230235, -0.00004784591,  0.00394085032,  0.00062052803, -0.00001690444,  0.00001041626,  0.00003066943,  0.02057461064, -0.00031283116,  0.00015523940, -0.00002112552,  0.00005968135, -0.00000642198,  0.00000353125,  0.00002570734, -0.00000047924,  0.00001951748
1352040192861354,  0.00956872699, -0.00141763958,  0.00010416377, -0.00000160369,  0.00000165050, -0.00003913141,  0.00370677196,  0.00050473948, -0.00001199952,  0.00000635045,  0.00003080484,  0.01900061188, -0.00025881953,  0.00009860757, -0.00000869051,  0.00005707492, -0.00000396581,  0.00000238612,  0.00002187500, -0.00000009916,  0.00001650908
1352040196260750,  0.00928728552, -0.00120824515,  0.00011068852, -0.00000141847, -0.00000067262, -0.00003327737,  0.00353536094,  0.00044573860, -0.00001055793,  0.00000553279,  0.00002857685,  0.01821272280, -0.00022460605,  0.00006055666, -0.00001663534,  0.00005565357, -0.00000324546,  0.00000337185,  0.00002116663, -0.00000038979,  0.00001639472
1352040199860132,  0.00903879863, -0.00101511820,  0.00012459210, -0.00000209661, -0.00000153968, -0.00002687469,  0.00337928312,  0.00040188364, -0.00000888586,  0.00000233329,  0.00002776506,  0.01772254543, -0.00019294452,  0.00000051188, -0.00001479647,  0.00005406066, -0.00000088421,  0.00000366917,  0.00002093194, -0.00000016672,  0.00001642684
1352040203459535,  0.00885915598, -0.00084154673,  0.00016781243, -0.00000377555, -0.00000499578, -0.00002712808,  0.00320593919,  0.00038293559, -0.00000585046, -0.00000193224,  0.00002133703,  0.01811066611, -0.00018262883, -0.00010395774, -0.00001372411,  0.00004963411,  0.00000602712,  0.00000342094,  0.00002356290,  0.00000057379,  0.00001613914
1352040207058948,  0.00877190596, -0.00066188739,  0.00026395856, -0.00000321815, -0.00001064582, -0.00003988331,  0.00307047723,  0.00038564982, -0.00000193058, -0.00000411306,  0.00000912776,  0.01976356662, -0.00019031329, -0.00021963090, -0.00002532910,  0.00004573110,  0.00000929956,  0.00000341497,  0.00003023241,  0.00000141185,  0.00001806328
1352040210658342,  0.00876521260, -0.00043714498,  0.00032610909,  0.00000386866, -0.00001085310, -0.00005837322,  0.00302094467,  0.00044575544, -0.00000212545, -0.00000611075, -0.00000445098,  0.02232647150, -0.00022664061, -0.00031454206, -0.00004933469,  0.00002873489,  0.00001003781,  0.00000224275,  0.00003328154,  0.00000220409,  0.00001488927
1352040216657345,  0.00853630793, -0.00025927785,  0.00033300334, -0.00001255614,  0.00000519477, -0.00005678773,  0.00307192734,  0.00049333577, -0.00000843380,  0.00000367481, -0.00001835370,  0.02357113883, -0.00036017900,  0.00023517797,  0.00000472954,  0.00003803105, -0.00000775780, -0.00000027826,  0.00002615704,  0.00000021486,  0.00001587898
1352040220456745,  0.00808802799, -0.00033911848,  0.00025902835, -0.00000974490,  0.00000564378, -0.00004553314,  0.00303448674,  0.00045920334, -0.00000700866,  0.00000477722, -0.00000901701,  0.02115811980, -0.00027511967,  0.00022969693,  0.00001053089,  0.00004400791, -0.00001047253, -0.00000110455,  0.00002264302,  0.00000050858,  0.00001434405
1352040224056117,  0.00768394034, -0.00039060853,  0.00022754457, -0.00000814558,  0.00000634805, -0.00004261313,  0.00302932902,  0.00041547838, -0.00000557175,  0.00000372270, -0.00000572815,  0.01934762029, -0.00023656801,  0.00018694596,  0.00000470356,  0.00004969478, -0.00000708813, -0.00000022336,  0.00002113307,  0.00000020655,  0.00001527166
1352040227655558,  0.00731655887, -0.00042669765,  0.00020195502, -0.00000970831,  0.00000440314, -0.00003891913,  0.00302469017,  0.00038070589, -0.00000512027,  0.00000197663, -0.00000508281,  0.01794633505, -0.00022646696,  0.00012602312,  0.00000440820,  0.00005285702, -0.00000217001, -0.00000048587,  0.00002092378,  0.00000011510,  0.00001732261
1352040231254922,  0.00697655783, -0.00045532179,  0.00016500516, -0.00000852899,  0.00000336712, -0.00003022158,  0.00302387781,  0.00035871435, -0.00000461594,  0.00000181041, -0.00000489164,  0.01675756591, -0.00019304027,  0.00010882610,  0.00000477455,  0.00005453262, -0.00000248824, -0.00000126087,  0.00002078482,  0.00000007614,  0.00001766351
1352040235054291,  0.00667312387, -0.00048474857,  0.00013131185, -0.00000819181,  0.00000329980, -0.00002868589,  0.00301190533,  0.00033568841, -0.00000372829,  0.00000235161, -0.00000355596,  0.01565852592, -0.00014066831,  0.00012562076,  0.00000609451,  0.00005125127, -0.00000796843, -0.00000263256,  0.00002005541,  0.00000053089,  0.00001583132
1352040238853663,  0.00643712936, -0.00050271516,  0.00009231142, -0.00000412507,  0.00000213651, -0.00002173895,  0.00300881064,  0.00032254098, -0.00000382615,  0.00000229236, -0.00000391574,  0.01479503205, -0.00014064733,  0.00008477909,  0.00000206264,  0.00005337115, -0.00000151296, -0.00000136172,  0.00001896787,  0.00000000121,  0.00001672249
1352040242453081,  0.00624639979, -0.00051137919,  0.00005214402,  0.00000148286,  0.00000153479, -0.00001639499,  0.00300753026,  0.00031379726, -0.00000397062,  0.00000369674, -0.00000749899,  0.01410857002, -0.00013373229,  0.00008059726, -0.00000201797,  0.00005125170, -0.00000192471, -0.00000002775,  0.00001861157, -0.00000003102,  0.00001626645
1352040246052467,  0.00611448444, -0.00053045900,  0.00003327039,  0.00000295011,  0.00000097898, -0.00000933643,  0.00300165160,  0.00028616929, -0.00000325664,  0.00000407880, -0.00000573805,  0.01330122089, -0.00010425515,  0.00007672717, -0.00000204653,  0.00005126499, -0.00000328962,  0.00000055214,  0.00001989459, -0.00000005382,  0.00001741371
1352040249651869,  0.00601706432, -0.00054368907,  0.00002531300,  0.00000270098,  0.00000043491, -0.00000489595,  0.00298493110,  0.00025284058, -0.00000252256,  0.00000400526, -0.00000202251,  0.01251132117, -0.00007337211,  0.00007220990,  0.00000123486,  0.00004847418, -0.00000411452, -0.00000038143,  0.00001965270,  0.00000006686,  0.00001698764
1352040253251270,  0.00595995269, -0.00054764564,  0.00002219132,  0.00000182715,  0.00000036323, -0.00000224520,  0.00297885195,  0.00022105321, -0.00000251788,  0.00000340281, -0.00000171084,  0.01187823946, -0.00006775605,  0.00006162310,  0.00000164712,  0.00004747103, -0.00000096221, -0.00000071142,  0.00001956310,  0.00000000526,  0.00001718171
1352040256850750,  0.00587033404, -0.00054944894,  0.00001239148,  0.00000505731,  0.00000036623, -0.00000711452,  0.00293983295,  0.00019763799, -0.00000245778,  0.00000448719,  0.00000357992,  0.01116423504, -0.00004841496,  0.00006123320, -0.00000022542,  0.00002987230, -0.00000178854,  0.00000001797,  0.00001500866,  0.00000008288,  0.00001083216
1352040260450075,  0.00580311571, -0.00054644135,  0.00000863884,  0.00000521345,  0.00000085891, -0.00000274960,  0.00291043307,  0.00016964011, -0.00000331308,  0.00000391552,  0.00000145008,  0.01063181070, -0.00006094212,  0.00004035964, -0.00000323898,  0.00002181541,  0.00000096639,  0.00000041660,  0.00001393035, -0.00000002795,  0.00000864713
1352040264049490,  0.00578970649, -0.00055018337,  0.00000739072,  0.00000353926,  0.00000065864,  0.00000343035,  0.00290412758,  0.00014489902, -0.00000232302,  0.00000315515, -0.00000351895,  0.01034476574, -0.00006776036,  0.00002487943, -0.00002060700,  0.00001937646,  0.00000034776,  0.00000299263,  0.00001212257, -0.00000010502,  0.00000813123
1352040270048484,  0.00581556795, -0.00055558021,  0.00001470294,  0.00000274113, -0.00000060919,  0.00000540616,  0.00290359403,  0.00011881291, -0.00000202722,  0.00000340353, -0.00000017559,  0.01001733020, -0.00005406516,  0.00002610336, -0.00000901761,  0.00002294675, -0.00000374202,  0.00000182658,  0.00001485502, -0.00000056189,  0.00000957292
1352040275447593,  0.00585859768, -0.00056193700,  0.00002236668,  0.00000227886,  0.00000126088,  0.00000842619,  0.00290739457,  0.00010236988, -0.00000293244,  0.00000074531,  0.00000222724,  0.00995258649, -0.00004951245, -0.00002832106,  0.00000032631,  0.00002310649,  0.00000262117,  0.00000015446,  0.00001739882, -0.00000001169,  0.00001095180
1352040279246956,  0.00594428759, -0.00060589479,  0.00002317616,  0.00000067046,  0.00000089420,  0.00000751121,  0.00298328093,  0.00011072193, -0.00000270655, -0.00000056421, -0.00000531964,  0.01062364447, -0.00005856607, -0.00006697636, -0.00000406023,  0.00003654890,  0.00001008776,  0.00000184193,  0.00002326716,  0.00000088536,  0.00001388075
1352040283846194,  0.00615888770, -0.00066010627,  0.00002472029,  0.00000530871,  0.00000018938,  0.00001463128,  0.00312084356,  0.00010677284, -0.00000372466,  0.00000292920, -0.00001153457,  0.01108324616, -0.00008585369, -0.00002989511, -0.00000478836,  0.00008094428,  0.00000093312,  0.00000526746,  0.00002332420,  0.00000006572,  0.00001976734
1352040287645561,  0.00627216590, -0.00072207832,  0.00005127401,  0.00000203775, -0.00000112230,  0.00001510788,  0.00311540363,  0.00009333211, -0.00000078014,  0.00000257497, -0.00000652205,  0.01118337008, -0.00005262927, -0.00001325669,  0.00000105948,  0.00008741973,  0.00000192603,  0.00000179002,  0.00002584654,  0.00000012216,  0.00002149445
1352040291244970,  0.00633894816, -0.00076440202,  0.00007184917,  0.00000057714, -0.00000101735,  0.00000735869,  0.00307392906,  0.00008148576, -0.00000024305,  0.00000222805, -0.00000612672,  0.01124467494, -0.00006038541,  0.00000134675,  0.00000035327,  0.00007948864, -0.00000144476,  0.00000281203,  0.00002324422,  0.00000002885,  0.00001887245
1352040295044337,  0.00635049283, -0.00075676103,  0.00008959928, -0.00000354072, -0.00000047465,  0.00001206453,  0.00296325113,  0.00007652294,  0.00000144599, -0.00000069707,  0.00000841630,  0.01112811276, -0.00002216905, -0.00000507050,  0.00000057539,  0.00004743995, -0.00000423836,  0.00000142678,  0.00002475248, -0.00000006325,  0.00001799174
1352040299643574,  0.00632340747, -0.00070460792,  0.00008974249, -0.00000226375,  0.00000192621,  0.00000813531,  0.00291325607,  0.00008000445, -0.00000124977, -0.00000179923,  0.00001401988,  0.01097270974, -0.00001312575,  0.00000202885, -0.00000064100,  0.00002401447, -0.00000399292,  0.00000068617,  0.00002143333, -0.00000002697,  0.00001085964
1352040314441117,  0.00637927134, -0.00060794972,  0.00007804368, -0.00000013378,  0.00000135061,  0.00000808579,  0.00301537592,  0.00008845012,  0.00000107128, -0.00000217531,  0.00001333091,  0.01099262578, -0.00001755571, -0.00001910593,  0.00000101119,  0.00003149612,  0.00000137372, -0.00000054151,  0.00003431227,  0.00000065315,  0.00002098587
1352040318040538,  0.00647210474, -0.00050177435,  0.00007147594,  0.00000008551, -0.00000048913,  0.00001770541,  0.00306069658,  0.00009460649,  0.00000117601, -0.00000167840,  0.00001120928,  0.01130874131, -0.00003552249, -0.00005349407, -0.00000072029,  0.00004019990,  0.00000592736, -0.00000041459,  0.00003450841,  0.00000026278,  0.00002364344
1352040326039224,  0.00676241561, -0.00041758381,  0.00006922775,  0.00000096557,  0.00000023478,  0.00003244576,  0.00315859928,  0.00011706482, -0.00000135557, -0.00000188917, -0.00000285620,  0.01219395016, -0.00007529239, -0.00008044428,  0.00000371476,  0.00005661828,  0.00000656794, -0.00000076867,  0.00004645241, -0.00000010068,  0.00003369569
1352040329638600,  0.00717619680, -0.00032605770,  0.00006532299, -0.00002197334, -0.00000137806,  0.00007179002,  0.00339571548,  0.00014567858, -0.00000513716, -0.00000313725,  0.00000485430,  0.01339244076, -0.00014667062, -0.00011390600, -0.00003702707,  0.00006994998, -0.00000639814,  0.00000059603,  0.00007570519,  0.00000122104,  0.00004626188
1352040333837902,  0.00702325171, -0.00032222227,  0.00006081191,  0.00000560710, -0.00000136834,  0.00005963503,  0.00329781387,  0.00014541947, -0.00000249465,  0.00000329543,  0.00000091111,  0.01319024224, -0.00009806518,  0.00014117268,  0.00001214769,  0.00005942062, -0.00000203581, -0.00000088135,  0.00005580413,  0.00000091620,  0.00003668553
1352040340836745,  0.00651546983, -0.00030667880,  0.00005971525,  0.00000050056,  0.00000048856,  0.00002409294,  0.00308417843,  0.00010849210, -0.00000101710, -0.00000024962,  0.00000375119,  0.01193111808, -0.00009259349,  0.00003211841,  0.00000356495,  0.00003695834, -0.00000501616, -0.00000005225,  0.00003441708,  0.00000008619,  0.00002498450
1352040360433492,  0.00654558616, -0.00019383337,  0.00004312619, -0.00000036419,  0.00000094969,  0.00002373528,  0.00318070889,  0.00013631540, -0.00000228757, -0.00000122008,  0.00000456565,  0.01243672467, -0.00009177167, -0.00004977315, -0.00000036337,  0.00004726708,  0.00000000097, -0.00000058585,  0.00003324580,  0.00000022031,  0.00002788419
1352040367032396,  0.00659707409, -0.00008346425,  0.00003326222, -0.00000378008,  0.00000215787,  0.00002478059,  0.00328060403,  0.00015011373, -0.00000099660, -0.00000137374, -0.00000364283,  0.01310511784, -0.00007650848, -0.00007166818, -0.00000614558,  0.00005211620,  0.00000391410, -0.00000192833,  0.00004149866,  0.00000003260,  0.00003475039
1352040372631470,  0.00657440670,  0.00002535168,  0.00003199123,  0.00000159975,  0.00000065950,  0.00002190617,  0.00334303112,  0.00014217049, -0.00000121125, -0.00000056230,  0.00000193044,  0.01361863889, -0.00007474070, -0.00006312189,  0.00000765168,  0.00005347179,  0.00000040833, -0.00000046767,  0.00003453129,  0.00000006532,  0.00002980210
1352040376630809,  0.00657982682,  0.00012925988,  0.00001759411,  0.00000025884,  0.00000229773,  0.00001873437,  0.00341374953,  0.00014813404, -0.00000262493,  0.00000004366,  0.00000246567,  0.01427365486, -0.00005820100, -0.00006516681,  0.00000540133,  0.00005755046, -0.00000067592, -0.00000072003,  0.00003567313, -0.00000002597,  0.00003107418
1352040380230208,  0.00658316623,  0.00021524154,  0.00000423915, -0.00000004016,  0.00000269130,  0.00001488531,  0.00347286707,  0.00014428002, -0.00000338525,  0.00000085644,  0.00000150464,  0.01496335756, -0.00004056683, -0.00006686040,  0.00000318581,  0.00005973828, -0.00000343109, -0.00000107447,  0.00003678011,  0.00000019318,  0.00003161856
1352040383829618,  0.00659034949,  0.00028660442, -0.00001306694, -0.00000103379,  0.00000326552,  0.00001075109,  0.00351680850,  0.00013398824, -0.00000516037,  0.00000141466, -0.00000133005,  0.01573972166, -0.00001186905, -0.00007475871, -0.00000075678,  0.00006239096, -0.00000291822, -0.00000133958,  0.00003687637,  0.00000018967,  0.00003153233
1352040387429015,  0.00658492855,  0.00033795918, -0.00002897472, -0.00000291859,  0.00000332332,  0.00000654195,  0.00351471544,  0.00011668081, -0.00000547808,  0.00000135211, -0.00000350690,  0.01659727075,  0.00002368462, -0.00008719152,  0.00000055280,  0.00006107932, -0.00000011959,  0.00000000001,  0.00003598139, -0.00000012741,  0.00003003747
1352040393827957,  0.00658019331,  0.00036781530, -0.00004903095, -0.00000207598,  0.00000419734, -0.00000022995,  0.00349073557,  0.00009250178, -0.00000699122,  0.00000239870, -0.00000608780,  0.01758764719,  0.00005447562, -0.00010538019, -0.00000166921,  0.00005969210, -0.00000320598, -0.00000088721,  0.00003610245, -0.00000002813,  0.00002934642
1352040398627160,  0.00657789193,  0.00036327689, -0.00005563738, -0.00000266206,  0.00000318501, -0.00000073093,  0.00342177103,  0.00008150078, -0.00000731939,  0.00000154150, -0.00001003053,  0.01859007533,  0.00008157878, -0.00011156844, -0.00000857724,  0.00005980065, -0.00000052776, -0.00000189998,  0.00003578785, -0.00000000026,  0.00002929832